Weather History for Chattanooga, TN

Change the Weather History Date:

Monday, March 24, 2014

  Actual Average Record
Temperature  
Mean Temperature 47 °F 54 °F  
Max Temperature 58 °F 66 °F 89 °F (1929)
Min Temperature 35 °F 43 °F 24 °F (1968)
Degree Days  
Heating Degree Days 18 11  
Month to date heating degree days 332 334  
Since 1 July heating degree days 3126 2956  
Cooling Degree Days 0 0  
Month to date cooling degree days 0 0  
Year to date cooling degree days 0 0  
Moisture  
Dew Point 20 °F    
Average Humidity 37    
Maximum Humidity 64    
Minimum Humidity 10    
Precipitation  
Precipitation 0.00 in 0.16 in 2.32 in (1934)
Month to date precipitation 1.76 3.85  
Year to date precipitation 9.35 13.60  
Snow  
Snow 0.00 in 0.10 in - ()
Month to date snowfall 0.0 1.1  
Since 1 July snowfall 8.4 3.7  
Snow Depth 0.00 in    
Sea Level Pressure  
Sea Level Pressure 30.16 in    
Wind  
Wind Speed 7 mph (NNE)    
Max Wind Speed 14 mph    
Max Gust Speed 20 mph    
Visibility 10 miles    
Events      
T = Trace of Precipitation, MM = Missing Value Source: NWS Daily Summary

Daily Weather History Graph

Daily Weather History Graph

Search for Another Location

Airport:

Trip Planner

Search our weather history database for the weather conditions in past years. The results will help you decide how hot, cold, wet, or windy it might be!

Date:

Astronomy

Mar. 24, 2014 Rise Set
Actual Time 7:38 AM EDT 7:55 PM EDT
Civil Twilight 7:13 AM EDT 8:21 PM EDT
Nautical Twilight 6:43 AM EDT 8:50 PM EDT
Astronomical Twilight 6:13 AM EDT 9:20 PM EDT
Moon 2:55 AM EDT (3/24) 1:32 PM EDT (3/24)
Length of Visible Light 13h 07m
Length of Day
12h 16m
Last Quarter, 43% of the Moon is Illuminated
Mar 24
Last Quarter
Mar 30
New
Apr 7
First Quarter
Apr 15
Full
Apr 22
Last Quarter

Hourly Weather History & Observations

Time (EDT) Temp. Windchill Dew Point Humidity Pressure Visibility Wind Dir Wind Speed Gust Speed Precip Events Conditions
12:53 AM 43.0 °F 37.2 °F 27.0 °F 53% 30.23 in 10.0 mi North 10.4 mph - N/A   Clear
1:53 AM 42.1 °F 35.7 °F 26.1 °F 53% 30.23 in 10.0 mi North 11.5 mph - N/A   Clear
2:53 AM 39.9 °F 32.9 °F 25.0 °F 55% 30.22 in 10.0 mi North 11.5 mph - N/A   Clear
3:53 AM 39.0 °F 34.0 °F 25.0 °F 57% 30.22 in 10.0 mi North 6.9 mph - N/A   Clear
4:53 AM 37.0 °F 32.4 °F 26.1 °F 65% 30.22 in 10.0 mi NNE 5.8 mph - N/A   Clear
5:53 AM 36.0 °F 30.3 °F 25.0 °F 64% 30.23 in 10.0 mi NNE 6.9 mph - N/A   Clear
6:53 AM 35.1 °F 30.1 °F 24.1 °F 64% 30.25 in 10.0 mi NNE 5.8 mph - N/A   Clear
7:53 AM 35.1 °F 30.1 °F 24.1 °F 64% 30.25 in 10.0 mi NNE 5.8 mph - N/A   Partly Cloudy
8:53 AM 39.0 °F 33.4 °F 25.0 °F 57% 30.27 in 10.0 mi NNE 8.1 mph - N/A   Partly Cloudy
9:53 AM 42.1 °F 39.2 °F 24.1 °F 49% 30.27 in 10.0 mi NE 4.6 mph - N/A   Partly Cloudy
10:53 AM 46.0 °F 41.4 °F 21.0 °F 37% 30.25 in 10.0 mi NE 9.2 mph - N/A   Scattered Clouds
11:53 AM 48.0 °F - 19.9 °F 33% 30.23 in 10.0 mi Variable 4.6 mph - N/A   Scattered Clouds
12:53 PM 50.0 °F - 19.9 °F 31% 30.22 in 10.0 mi NNW 9.2 mph 17.3 mph N/A   Scattered Clouds
1:53 PM 52.0 °F - 19.0 °F 27% 30.18 in 10.0 mi Variable 3.5 mph - N/A   Scattered Clouds
2:53 PM 55.0 °F - 17.1 °F 23% 30.14 in 10.0 mi Variable 5.8 mph - N/A   Mostly Cloudy
3:53 PM 57.0 °F - 1.9 °F 11% 30.10 in 10.0 mi NNE 3.5 mph - N/A   Mostly Cloudy
4:53 PM 55.9 °F - 7.0 °F 14% 30.07 in 10.0 mi Variable 3.5 mph - N/A   Mostly Cloudy
5:53 PM 55.9 °F - 5.0 °F 13% 30.04 in 10.0 mi Calm Calm - N/A   Mostly Cloudy
6:53 PM 55.9 °F - 10.9 °F 17% 30.02 in 10.0 mi NE 6.9 mph - N/A   Mostly Cloudy
7:53 PM 54.0 °F - 15.1 °F 22% 30.02 in 10.0 mi NNE 6.9 mph - N/A   Mostly Cloudy
8:53 PM 52.0 °F - 16.0 °F 24% 30.01 in 10.0 mi NNE 5.8 mph - N/A   Mostly Cloudy
9:53 PM 51.1 °F - 19.0 °F 28% 30.02 in 10.0 mi NNE 5.8 mph - N/A   Mostly Cloudy
10:53 PM 48.9 °F - 27.0 °F 43% 30.02 in 10.0 mi Calm Calm - N/A   Mostly Cloudy
11:53 PM 46.9 °F - 32.0 °F 56% 30.01 in 10.0 mi NW 3.5 mph - N/A   Overcast